YAOGAN-30 A

导读

YAOGAN-30 A(遥感三十号A星)是中国研发的遥感卫星,于北京时间2017年9月29日8时00分成功发射。该卫星属于中国遥感卫星系列,主要用于开展空间环境探测相关技术试验,同时可服务于国土资源普查、农作物估产、防灾减灾等领域,为国民经济发展提供遥感信息支撑,进一步完善了中国遥感卫星体系布局。

基本信息
目录编号:
42945
目录名称:
YAOGAN-30 A
国际标识:
2017-058A
轨道中心:
EARTH
卫星名称:
YAOGAN-30 A
卫星全名:
--
卫星状态:
在轨 (已飞行3269 天)
发射日期:
2017-09-29 UTC
国别 :
中国 (CN)
星等 :
--
轨道信息
数据来源 国际轨道数据
星历时间: 2026-09-11T08:10:37+0800
5小时前
查看轨道信息
半长轴: 6934.206km
偏心率: 0.0002415
轨道倾角: 34.997°
近地点辐角 201.726°
升交点赤经 225.693°
平近点角 158.335°
近地点: 554.394km
远地点: 557.744km
周期: 95.776分钟
每日圈数: 15.035149
详细信息
使用方式:
暂无
2D轨道图
3D轨道图
轨道高度分析图
轨道倾角分析图
轨道综合分析图
查看轨道综合分析图
交会数据列表
事件ID 空间交会对象 最接近时刻(TCA) 交会距离 交会风险概率(CRP) 交会风险指数(CRI) 操作
CDM_260912-090303-166604-294525
2026-09-12T
09:03:55+0000
1.392 km
极远距离
8.050706E-6 低风险 0.53
与全量物体交会距离演化趋势
与全量物体交会风险概率演化趋势